TimeEDT,TemperatureF,Dew PointF,Humidity,Sea Level PressureIn,VisibilityMPH,Wind Direction,Wind SpeedMPH,Gust SpeedMPH,PrecipitationIn,Events,Conditions,WindDirDegrees,DateUTC
12:14 AM,55.4,54.0,95,29.88,2.5,NNW,3.5,-,N/A,,Mostly Cloudy,340,2013-06-12 04:14:00
12:34 AM,55.4,54.1,96,29.88,0.5,Calm,Calm,-,N/A,Fog,Fog,0,2013-06-12 04:34:00
12:54 AM,55.4,54.0,95,29.88,4.0,Calm,Calm,-,N/A,,Overcast,0,2013-06-12 04:54:00
1:14 AM,55.6,54.5,96,29.88,10.0,West,3.5,-,N/A,,Mostly Cloudy,270,2013-06-12 05:14:00
1:34 AM,55.6,54.5,96,29.88,10.0,Calm,Calm,-,N/A,,Mostly Cloudy,0,2013-06-12 05:34:00
1:54 AM,55.4,54.0,95,29.88,0.2,WNW,4.6,-,N/A,Fog,Fog,290,2013-06-12 05:54:00
2:14 AM,55.4,54.0,95,29.88,5.0,WNW,3.5,-,N/A,,Scattered Clouds,290,2013-06-12 06:14:00
2:34 AM,54.5,53.2,96,29.88,1.2,West,3.5,-,N/A,,Overcast,280,2013-06-12 06:34:00
2:54 AM,53.2,52.2,96,29.88,0.2,West,3.5,-,N/A,Fog,Fog,260,2013-06-12 06:54:00
3:14 AM,54.0,52.9,96,29.88,0.2,West,4.6,-,N/A,Fog,Fog,270,2013-06-12 07:14:00
3:34 AM,54.1,53.1,96,29.87,0.2,Calm,Calm,-,N/A,Fog,Fog,0,2013-06-12 07:34:00
3:54 AM,54.1,53.1,96,29.87,0.5,NNW,3.5,-,N/A,Fog,Fog,340,2013-06-12 07:54:00
4:14 AM,54.5,53.4,96,29.87,0.2,Calm,Calm,-,N/A,Fog,Fog,0,2013-06-12 08:14:00
4:34 AM,55.2,54.0,96,29.87,0.2,Calm,Calm,-,N/A,Fog,Fog,0,2013-06-12 08:34:00
4:54 AM,55.2,54.1,96,29.88,0.2,NW,3.5,-,N/A,Fog,Fog,310,2013-06-12 08:54:00
5:14 AM,54.7,53.6,96,29.88,0.2,Calm,Calm,-,N/A,Fog,Fog,0,2013-06-12 09:14:00
5:34 AM,54.5,53.4,96,29.89,0.2,Calm,Calm,-,N/A,Fog,Fog,0,2013-06-12 09:34:00
5:53 AM,54.1,53.1,96,29.90,0.2,Calm,Calm,-,N/A,Fog,Fog,0,2013-06-12 09:53:00
6:14 AM,54.5,53.2,96,29.90,0.2,Calm,Calm,-,N/A,Fog,Fog,0,2013-06-12 10:14:00
6:34 AM,54.5,53.4,96,29.90,0.2,Calm,Calm,-,N/A,Fog,Fog,0,2013-06-12 10:34:00
6:53 AM,54.7,53.6,96,29.90,0.2,Calm,Calm,-,N/A,Fog,Fog,0,2013-06-12 10:53:00
7:14 AM,55.0,54.0,96,29.91,0.2,Calm,Calm,-,N/A,Fog,Fog,0,2013-06-12 11:14:00
7:34 AM,55.2,54.3,97,29.91,0.2,Calm,Calm,-,N/A,Fog,Fog,0,2013-06-12 11:34:00
7:53 AM,55.6,54.7,97,29.90,0.2,Calm,Calm,-,N/A,Fog,Fog,0,2013-06-12 11:53:00
8:14 AM,56.3,55.0,96,29.89,0.2,Calm,Calm,-,N/A,Fog,Fog,0,2013-06-12 12:14:00
8:34 AM,57.4,56.5,97,29.90,0.2,Calm,Calm,-,N/A,Fog,Fog,0,2013-06-12 12:34:00
8:53 AM,56.7,55.6,96,29.91,0.2,Calm,Calm,-,N/A,Fog,Fog,0,2013-06-12 12:53:00
9:14 AM,56.3,55.4,97,29.91,0.2,SSW,3.5,-,N/A,Fog,Fog,200,2013-06-12 13:14:00
9:34 AM,56.1,55.0,96,29.91,0.5,Calm,Calm,-,N/A,Fog,Fog,0,2013-06-12 13:34:00
9:54 AM,58.1,57.0,96,29.91,10.0,South,3.5,-,N/A,,Mostly Cloudy,190,2013-06-12 13:54:00
10:14 AM,57.7,56.7,96,29.90,10.0,South,4.6,-,N/A,,Clear,180,2013-06-12 14:14:00
10:33 AM,59.9,59.0,97,29.89,10.0,South,3.5,-,N/A,,Clear,180,2013-06-12 14:33:00
10:54 AM,61.0,59.9,96,29.88,10.0,Calm,Calm,-,N/A,,Clear,0,2013-06-12 14:54:00
11:14 AM,61.9,60.4,95,29.88,10.0,Calm,Calm,-,N/A,,Clear,0,2013-06-12 15:14:00
11:33 AM,62.8,60.6,93,29.89,10.0,West,3.5,-,N/A,,Clear,260,2013-06-12 15:33:00
11:54 AM,64.0,60.3,87,29.86,10.0,NE,4.6,-,N/A,,Clear,50,2013-06-12 15:54:00
12:14 PM,66.0,60.8,83,29.88,10.0,North,3.5,-,N/A,,Clear,360,2013-06-12 16:14:00
12:33 PM,68.2,58.3,71,29.88,10.0,SE,4.6,-,N/A,,Clear,140,2013-06-12 16:33:00
12:54 PM,70.9,53.6,54,29.87,10.0,South,3.5,-,N/A,,Clear,190,2013-06-12 16:54:00
1:14 PM,71.1,51.3,49,29.86,10.0,Calm,Calm,-,N/A,,Clear,0,2013-06-12 17:14:00
1:33 PM,72.1,50.4,46,29.86,10.0,SW,3.5,-,N/A,,Clear,220,2013-06-12 17:33:00
1:54 PM,72.7,49.5,44,29.86,10.0,South,3.5,-,N/A,,Clear,170,2013-06-12 17:54:00
2:14 PM,72.5,47.7,41,29.86,10.0,SSW,5.8,-,N/A,,Clear,210,2013-06-12 18:14:00
2:34 PM,73.2,50.5,45,29.85,10.0,SW,3.5,-,N/A,,Clear,220,2013-06-12 18:34:00
2:54 PM,73.6,49.8,43,29.84,10.0,SW,4.6,-,N/A,,Clear,230,2013-06-12 18:54:00
3:14 PM,71.8,51.1,48,29.84,10.0,Calm,Calm,-,N/A,,Clear,0,2013-06-12 19:14:00
3:33 PM,72.5,51.4,47,29.84,10.0,Calm,Calm,-,N/A,,Clear,0,2013-06-12 19:33:00
3:54 PM,72.0,53.4,52,29.84,10.0,West,4.6,-,N/A,,Mostly Cloudy,270,2013-06-12 19:54:00
4:14 PM,73.0,53.2,50,29.84,10.0,West,4.6,-,N/A,,Overcast,260,2013-06-12 20:14:00
4:34 PM,72.5,53.8,52,29.85,10.0,WNW,4.6,-,N/A,,Overcast,290,2013-06-12 20:34:00
4:54 PM,75.2,50.2,41,29.84,10.0,NW,5.8,-,N/A,,Mostly Cloudy,310,2013-06-12 20:54:00
5:14 PM,74.5,48.9,40,29.84,10.0,West,4.6,-,N/A,,Clear,280,2013-06-12 21:14:00
5:34 PM,75.0,49.5,40,29.83,10.0,West,3.5,-,N/A,,Clear,270,2013-06-12 21:34:00
5:54 PM,74.3,48.9,41,29.82,10.0,Calm,Calm,-,N/A,,Clear,0,2013-06-12 21:54:00
6:14 PM,73.9,47.7,39,29.82,10.0,SSW,6.9,-,N/A,,Clear,210,2013-06-12 22:14:00
6:34 PM,72.5,48.0,42,29.82,10.0,SW,5.8,-,N/A,,Clear,230,2013-06-12 22:34:00
6:54 PM,71.6,48.6,44,29.81,10.0,WSW,4.6,-,N/A,,Clear,240,2013-06-12 22:54:00
7:14 PM,72.7,48.4,42,29.80,10.0,West,3.5,-,N/A,,Clear,280,2013-06-12 23:14:00
7:34 PM,73.2,46.9,39,29.80,10.0,WNW,3.5,-,N/A,,Clear,300,2013-06-12 23:34:00
7:54 PM,72.5,46.8,40,29.80,10.0,WNW,3.5,-,N/A,,Clear,290,2013-06-12 23:54:00
8:14 PM,71.8,48.0,43,29.79,10.0,WNW,3.5,-,N/A,,Clear,290,2013-06-13 00:14:00
8:34 PM,69.6,49.6,49,29.79,10.0,NW,4.6,-,N/A,,Scattered Clouds,310,2013-06-13 00:34:00
8:54 PM,68.9,49.8,51,29.79,10.0,WNW,3.5,-,N/A,,Scattered Clouds,300,2013-06-13 00:54:00
9:14 PM,66.6,51.8,59,29.80,10.0,NNW,3.5,-,N/A,,Scattered Clouds,330,2013-06-13 01:14:00
9:34 PM,66.4,52.2,60,29.79,10.0,NW,4.6,-,N/A,,Scattered Clouds,320,2013-06-13 01:34:00
9:54 PM,64.4,53.4,67,29.79,10.0,NNW,5.8,-,N/A,,Clear,330,2013-06-13 01:54:00
10:14 PM,62.6,53.1,71,29.78,10.0,North,4.6,-,N/A,,Clear,350,2013-06-13 02:14:00
10:34 PM,64.2,52.2,65,29.79,10.0,North,3.5,-,N/A,,Clear,350,2013-06-13 02:34:00
10:54 PM,62.2,52.9,71,29.79,10.0,Calm,Calm,-,N/A,,Clear,0,2013-06-13 02:54:00
11:14 PM,61.2,53.2,75,29.78,10.0,North,5.8,-,N/A,,Clear,350,2013-06-13 03:14:00
11:34 PM,60.6,53.6,78,29.78,10.0,North,6.9,-,N/A,,Clear,360,2013-06-13 03:34:00
11:54 PM,61.7,53.1,73,29.77,10.0,NNE,6.9,-,N/A,,Clear,20,2013-06-13 03:54:00